User: anonymous   Login
Location: El Bakhil
(32.7726°N, 5.5387°W)
Time: 05:46:45
(UTC+00:00)
Language:

KAITUO 1B - Orbit

View from above orbital plane
View from above orbital plane
View from above satellite
View from above satellite

Ground track
Ground track

The orbit data is extracted from the following two-line orbital elements,

1 40912U 15049P   21209.87783861  .00002451  00000-0  11095-3 0  9998
2 40912  97.4438 219.0447 0014389   5.1717 117.7777 15.21759183324497
Epoch (UTC): 28 July 2021 21:04:05
Eccentricity: 0.0014389
inclination: 97.4438°
perigee height: 490 km
apogee height: 510 km
right ascension of ascending node: 219.0447°
argument of perigee: 5.1717°
revolutions per day: 15.21759183
mean anomaly at epoch: 117.7777°
orbit number at epoch: 32449

The dashed part of the orbit path shows where the satellite is in the earth's shadow,  

DLR